QPF
0.05 0.04 0.03 0.02 0.02 0.02 0.01 0.01 0.01 0.01 0.01 0.01 0.01 0.01 0.01 0.01 0.02 0.02 0.03 0.03 0.04 0.04 0.03 0.03 0.04 0.03 0.04 0.05 0.06 0.06 0.04 0.04 0.03 0.03 0.03 0.03 0.02 0.02 0.04 0.10 0.10 0.09 0.08
0.07 0.06 0.05 0.05 0.04 0.03 0.02 0.01 0.01 0.01 0.01 0.02 0.02 0.02 0.02 0.02 0.02 0.02 0.01 0.02 0.02 0.03 0.04 0.04 0.03 0.04 0.04 0.05 0.04 0.04 0.04 0.03 0.03 0.03 0.03 0.02 0.02 0.02 0.03 0.06 0.07 0.07 0.06
0.06 0.05 0.04 0.04 0.05 0.05 0.03 0.01 0.01 0.01 0.01 0.02 0.02 0.02 0.03 0.03 0.03 0.02 0.02 0.02 0.02 0.02 0.03 0.04 0.03 0.02 0.03 0.03 0.03 0.04 0.03 0.04 0.03 0.03 0.03 0.03 0.02 0.02 0.02 0.03 0.04 0.04 0.03
0.05 0.04 0.04 0.03 0.03 0.03 0.02 0.01 0.01 0.01 0.01 0.02 0.03 0.02 0.02 0.03 0.04 0.03 0.02 0.02 0.03 0.03 0.03 0.04 0.03 0.02 0.02 0.02 0.02 0.02 0.02 0.03 0.03 0.03 0.02 0.02 0.01 0.02 0.03 0.03 0.03 0.03 0.03
0.04 0.04 0.03 0.02 0.02 0.02 0.02 0.01 0.01 0.00 0.00 0.01 0.03 0.03 0.02 0.03 0.03 0.03 0.03 0.03 0.03 0.03 0.03 0.03 0.03 0.03 0.03 0.02 0.01 0.01 0.02 0.02 0.02 0.03 0.02 0.02 0.02 0.03 0.02 0.02 0.02 0.02 0.02
0.02 0.02 0.03 0.02 0.02 0.02 0.02 0.01 0.00 0.00 0.00 0.00 0.01 0.03 0.03 0.03 0.03 0.03 0.04 0.03 0.02 0.02 0.02 0.02 0.02 0.03 0.02 0.02 0.02 0.02 0.02 0.03 0.03 0.03 0.04 0.04 0.04 0.03 0.02 0.02 0.01 0.01 0.01
0.03 0.02 0.02 0.02 0.02 0.01 0.01 0.01 0.01 0.01 0.01 0.01 0.01 0.01 0.02 0.02 0.02 0.02 0.02 0.02 0.03 0.02 0.02 0.02 0.01 0.01 0.02 0.01 0.02 0.03 0.03 0.03 0.03 0.03 0.04 0.05 0.04 0.03 0.02 0.02 0.01 0.01 0.01
0.06 0.04 0.03 0.02 0.02 0.03 0.02 0.03 0.03 0.02 0.01 0.01 0.01 0.01 0.01 0.03 0.03 0.03 0.03 0.04 0.05 0.04 0.03 0.02 0.01 0.01 0.01 0.01 0.02 0.03 0.03 0.03 0.03 0.03 0.04 0.05 0.04 0.03 0.03 0.03 0.02 0.02 0.01
0.09 0.07 0.06 0.04 0.03 0.03 0.02 0.03 0.03 0.02 0.01 0.01 0.01 0.01 0.01 0.03 0.04 0.04 0.04 0.05 0.05 0.05 0.04 0.03 0.02 0.01 0.01 0.01 0.01 0.02 0.02 0.02 0.02 0.03 0.03 0.04 0.04 0.03 0.03 0.03 0.02 0.02 0.01
0.08 0.08 0.07 0.06 0.04 0.03 0.03 0.03 0.03 0.02 0.01 0.01 0.01 0.00 0.01 0.02 0.04 0.04 0.03 0.04 0.04 0.04 0.03 0.02 0.02 0.02 0.02 0.02 0.01 0.01 0.01 0.01 0.03 0.03 0.03 0.03 0.03 0.02 0.02 0.02 0.02 0.02 0.01
0.08 0.08 0.07 0.06 0.04 0.04 0.04 0.05 0.05 0.04 0.03 0.03 0.02 0.02 0.02 0.02 0.03 0.03 0.03 0.03 0.03 0.03 0.02 0.02 0.02 0.02 0.01 0.01 0.01 0.01 0.01 0.02 0.03 0.04 0.03 0.02 0.01 0.01 0.01 0.01 0.01 0.01 0.01
0.06 0.06 0.06 0.06 0.06 0.06 0.07 0.07 0.08 0.10 0.08 0.06 0.05 0.04 0.03 0.03 0.03 0.03 0.03 0.03 0.03 0.03 0.02 0.01 0.01 0.01 0.01 0.01 0.01 0.01 0.02 0.02 0.03 0.03 0.02 0.01 0.01 0.01 0.01 0.01 0.01 0.01 0.01
0.04 0.04 0.04 0.05 0.06 0.07 0.07 0.08 0.11 0.14 0.13 0.11 0.08 0.05 0.04 0.03 0.03 0.02 0.03 0.04 0.03 0.02 0.01 0.01 0.02 0.02 0.02 0.01 0.02 0.01 0.02 0.01 0.01 0.02 0.01 0.01 0.01 0.01 0.00 0.01 0.01 0.01 0.01
0.03 0.03 0.03 0.04 0.05 0.06 0.06 0.07 0.09 0.14 0.17 0.15 0.10 0.07 0.05 0.04 0.02 0.01 0.01 0.02 0.02 0.01 0.01 0.02 0.02 0.02 0.02 0.01 0.01 0.01 0.01 0.01 0.01 0.01 0.01 0.00 0.00 0.01 0.00 0.00 0.01 0.00 0.01
0.03 0.03 0.03 0.04 0.05 0.05 0.06 0.06 0.07 0.06 0.07 0.09 0.09 0.07 0.05 0.04 0.03 0.01 0.01 0.01 0.02 0.02 0.02 0.01 0.01 0.01 0.01 0.00 0.00 0.01 0.01 0.01 0.01 0.01 0.01 0.00 0.00 0.00 0.01 0.00 0.00 0.00 0.01
0.04 0.05 0.06 0.05 0.05 0.06 0.06 0.05 0.06 0.05 0.05 0.04 0.05 0.06 0.05 0.03 0.02 0.02 0.02 0.02 0.03 0.03 0.02 0.01 0.01 0.01 0.01 0.01 0.01 0.01 0.01 0.01 0.01 0.01 0.01 0.00 0.00 0.00 0.00 0.00 0.01 0.01 0.01
0.05 0.06 0.05 0.03 0.03 0.04 0.05 0.04 0.05 0.06 0.06 0.05 0.05 0.05 0.05 0.04 0.03 0.02 0.02 0.01 0.01 0.01 0.01 0.01 0.01 0.01 0.02 0.02 0.02 0.02 0.02 0.01 0.01 0.01 0.01 0.00 0.00 0.00 0.00 0.01 0.01 0.01 0.01
0.02 0.02 0.02 0.01 0.01 0.02 0.03 0.04 0.06 0.07 0.07 0.05 0.04 0.04 0.04 0.04 0.03 0.03 0.02 0.02 0.01 0.01 0.01 0.01 0.02 0.02 0.03 0.02 0.03 0.03 0.02 0.02 0.01 0.01 0.01 0.00 0.00 0.01 0.00 0.00 0.01 0.01 0.01
0.01 0.01 0.00 0.00 0.01 0.01 0.02 0.02 0.03 0.04 0.05 0.05 0.04 0.03 0.03 0.03 0.03 0.02 0.02 0.01 0.01 0.01 0.01 0.01 0.02 0.03 0.04 0.03 0.03 0.03 0.03 0.03 0.02 0.02 0.01 0.01 0.01 0.01 0.01 0.01 0.01 0.01 0.02
0.00 0.01 0.01 0.00 0.01 0.01 0.01 0.01 0.01 0.02 0.02 0.03 0.03 0.03 0.02 0.02 0.02 0.02 0.01 0.01 0.01 0.01 0.01 0.02 0.02 0.03 0.03 0.03 0.04 0.04 0.06 0.06 0.04 0.03 0.02 0.01 0.01 0.01 0.01 0.01 0.01 0.01 0.02
0.00 0.00 0.00 0.01 0.02 0.01 0.01 0.01 0.01 0.03 0.03 0.03 0.03 0.03 0.02 0.02 0.02 0.01 0.01 0.01 0.01 0.02 0.02 0.02 0.03 0.03 0.03 0.03 0.04 0.05 0.06 0.08 0.07 0.05 0.04 0.03 0.02 0.02 0.01 0.01 0.01 0.01 0.02
0.01 0.01 0.01 0.01 0.02 0.03 0.03 0.02 0.02 0.03 0.04 0.04 0.04 0.04 0.04 0.03 0.02 0.03 0.03 0.03 0.03 0.03 0.03 0.04 0.05 0.05 0.05 0.05 0.05 0.06 0.06 0.07 0.09 0.07 0.06 0.05 0.03 0.02 0.02 0.01 0.02 0.02 0.02
0.02 0.02 0.02 0.02 0.03 0.04 0.05 0.04 0.04 0.03 0.04 0.05 0.05 0.04 0.03 0.03 0.03 0.03 0.04 0.05 0.05 0.06 0.05 0.04 0.05 0.05 0.05 0.06 0.07 0.07 0.06 0.07 0.08 0.08 0.07 0.06 0.04 0.04 0.04 0.03 0.03 0.03 0.03
0.01 0.01 0.02 0.02 0.02 0.03 0.03 0.03 0.03 0.04 0.05 0.05 0.04 0.03 0.02 0.02 0.03 0.03 0.03 0.04 0.04 0.05 0.05 0.04 0.04 0.04 0.05 0.06 0.06 0.06 0.06 0.06 0.06 0.07 0.09 0.07 0.06 0.06 0.07 0.05 0.05 0.05 0.05
0.02 0.01 0.01 0.01 0.01 0.02 0.02 0.03 0.03 0.04 0.03 0.03 0.02 0.02 0.01 0.01 0.02 0.02 0.02 0.02 0.02 0.02 0.02 0.02 0.02 0.03 0.03 0.03 0.03 0.04 0.04 0.04 0.04 0.05 0.07 0.07 0.07 0.08 0.09 0.09 0.08 0.07 0.07
0.02 0.01 0.01 0.01 0.01 0.01 0.01 0.01 0.02 0.02 0.02 0.02 0.01 0.01 0.01 0.01 0.01 0.01 0.01 0.01 0.01 0.01 0.01 0.01 0.02 0.03 0.03 0.02 0.02 0.02 0.03 0.03 0.04 0.04 0.05 0.05 0.05 0.06 0.07 0.08 0.08 0.08 0.06
MSLP
1009.85 1009.97 1010.12 1010.29 1010.47 1010.64 1010.80 1010.94 1011.06 1011.16 1011.24 1011.29 1011.31 1011.28 1011.22 1011.14 1011.03 1010.93 1010.86 1010.85 1010.90 1011.02 1011.20 1011.42 1011.65 1011.86 1012.01 1012.08 1012.07 1011.99 1011.86 1011.73 1011.62 1011.58 1011.64 1011.81 1012.09 1012.46 1012.90 1013.37 1013.85 1014.31 1014.73
1010.07 1010.11 1010.18 1010.27 1010.37 1010.47 1010.58 1010.70 1010.82 1010.94 1011.06 1011.15 1011.22 1011.25 1011.23 1011.17 1011.09 1010.99 1010.90 1010.86 1010.86 1010.92 1011.04 1011.19 1011.36 1011.52 1011.64 1011.71 1011.71 1011.66 1011.58 1011.50 1011.44 1011.44 1011.52 1011.68 1011.93 1012.26 1012.62 1013.01 1013.40 1013.76 1014.09
1010.23 1010.22 1010.23 1010.25 1010.29 1010.34 1010.42 1010.51 1010.63 1010.76 1010.90 1011.04 1011.15 1011.22 1011.24 1011.22 1011.16 1011.07 1010.98 1010.90 1010.86 1010.86 1010.91 1011.00 1011.10 1011.20 1011.28 1011.33 1011.33 1011.31 1011.26 1011.23 1011.22 1011.26 1011.37 1011.55 1011.78 1012.06 1012.36 1012.67 1012.97 1013.25 1013.49
1010.32 1010.29 1010.26 1010.24 1010.23 1010.24 1010.28 1010.36 1010.46 1010.60 1010.76 1010.92 1011.06 1011.17 1011.23 1011.24 1011.21 1011.13 1011.04 1010.94 1010.87 1010.82 1010.81 1010.82 1010.86 1010.89 1010.92 1010.94 1010.93 1010.91 1010.90 1010.90 1010.94 1011.02 1011.16 1011.35 1011.57 1011.83 1012.08 1012.33 1012.56 1012.76 1012.94
1010.35 1010.30 1010.25 1010.20 1010.16 1010.14 1010.15 1010.20 1010.29 1010.42 1010.58 1010.75 1010.92 1011.05 1011.14 1011.18 1011.17 1011.12 1011.04 1010.94 1010.84 1010.76 1010.69 1010.65 1010.62 1010.59 1010.57 1010.54 1010.51 1010.49 1010.48 1010.51 1010.58 1010.69 1010.85 1011.05 1011.28 1011.52 1011.75 1011.96 1012.15 1012.31 1012.45
1010.28 1010.22 1010.15 1010.08 1010.01 1009.96 1009.94 1009.96 1010.04 1010.15 1010.31 1010.48 1010.65 1010.80 1010.92 1010.99 1011.01 1010.98 1010.92 1010.83 1010.74 1010.63 1010.54 1010.45 1010.36 1010.28 1010.20 1010.13 1010.07 1010.02 1010.01 1010.04 1010.12 1010.25 1010.43 1010.65 1010.88 1011.12 1011.35 1011.55 1011.72 1011.87 1011.99
1010.07 1010.00 1009.92 1009.82 1009.72 1009.64 1009.60 1009.59 1009.64 1009.74 1009.88 1010.04 1010.22 1010.38 1010.52 1010.62 1010.68 1010.69 1010.67 1010.61 1010.52 1010.43 1010.32 1010.20 1010.08 1009.95 1009.83 1009.71 1009.60 1009.53 1009.49 1009.51 1009.59 1009.72 1009.90 1010.13 1010.37 1010.62 1010.85 1011.07 1011.25 1011.41 1011.55
1009.70 1009.61 1009.50 1009.37 1009.25 1009.15 1009.07 1009.04 1009.07 1009.14 1009.27 1009.43 1009.60 1009.78 1009.94 1010.08 1010.18 1010.24 1010.26 1010.25 1010.21 1010.13 1010.03 1009.91 1009.77 1009.61 1009.44 1009.28 1009.13 1009.02 1008.95 1008.94 1008.99 1009.11 1009.29 1009.51 1009.76 1010.02 1010.27 1010.51 1010.72 1010.92 1011.10
1009.12 1009.01 1008.88 1008.73 1008.58 1008.45 1008.36 1008.31 1008.31 1008.38 1008.49 1008.65 1008.83 1009.03 1009.22 1009.40 1009.55 1009.67 1009.75 1009.80 1009.80 1009.76 1009.69 1009.57 1009.42 1009.24 1009.04 1008.83 1008.64 1008.49 1008.38 1008.33 1008.36 1008.46 1008.62 1008.83 1009.08 1009.34 1009.61 1009.88 1010.13 1010.37 1010.61
1008.36 1008.23 1008.07 1007.91 1007.75 1007.61 1007.50 1007.44 1007.44 1007.49 1007.61 1007.77 1007.97 1008.19 1008.42 1008.65 1008.86 1009.04 1009.19 1009.29 1009.35 1009.35 1009.30 1009.19 1009.04 1008.84 1008.61 1008.37 1008.14 1007.94 1007.80 1007.72 1007.71 1007.78 1007.91 1008.11 1008.35 1008.62 1008.91 1009.19 1009.48 1009.76 1010.04
1007.45 1007.29 1007.13 1006.96 1006.80 1006.66 1006.55 1006.50 1006.50 1006.56 1006.69 1006.87 1007.09 1007.35 1007.63 1007.90 1008.17 1008.42 1008.62 1008.78 1008.88 1008.92 1008.88 1008.78 1008.61 1008.39 1008.14 1007.87 1007.60 1007.37 1007.19 1007.08 1007.05 1007.09 1007.21 1007.39 1007.62 1007.89 1008.17 1008.47 1008.77 1009.08 1009.40
1006.42 1006.26 1006.10 1005.94 1005.80 1005.67 1005.59 1005.55 1005.57 1005.66 1005.80 1006.01 1006.27 1006.57 1006.89 1007.22 1007.54 1007.84 1008.09 1008.29 1008.42 1008.47 1008.43 1008.32 1008.13 1007.88 1007.60 1007.30 1007.01 1006.75 1006.55 1006.42 1006.38 1006.41 1006.51 1006.69 1006.90 1007.16 1007.44 1007.73 1008.03 1008.35 1008.68
1005.35 1005.20 1005.06 1004.93 1004.81 1004.72 1004.66 1004.65 1004.70 1004.82 1005.00 1005.24 1005.54 1005.88 1006.25 1006.62 1006.99 1007.33 1007.61 1007.82 1007.95 1007.99 1007.94 1007.79 1007.57 1007.29 1006.97 1006.64 1006.33 1006.07 1005.87 1005.74 1005.70 1005.73 1005.84 1006.01 1006.22 1006.46 1006.73 1007.00 1007.29 1007.59 1007.91
1004.29 1004.16 1004.05 1003.95 1003.87 1003.82 1003.80 1003.83 1003.91 1004.06 1004.27 1004.55 1004.89 1005.27 1005.68 1006.09 1006.49 1006.85 1007.14 1007.35 1007.46 1007.47 1007.37 1007.18 1006.92 1006.59 1006.24 1005.90 1005.58 1005.32 1005.13 1005.03 1005.01 1005.06 1005.19 1005.37 1005.58 1005.81 1006.05 1006.30 1006.56 1006.83 1007.13
1003.28 1003.18 1003.10 1003.04 1002.99 1002.97 1002.99 1003.05 1003.17 1003.35 1003.59 1003.91 1004.28 1004.69 1005.13 1005.57 1005.99 1006.35 1006.64 1006.83 1006.91 1006.87 1006.72 1006.48 1006.16 1005.80 1005.43 1005.07 1004.76 1004.52 1004.37 1004.30 1004.32 1004.41 1004.56 1004.76 1004.97 1005.19 1005.42 1005.64 1005.86 1006.09 1006.35
1002.36 1002.28 1002.23 1002.19 1002.17 1002.18 1002.22 1002.30 1002.44 1002.64 1002.91 1003.25 1003.64 1004.08 1004.54 1005.00 1005.42 1005.78 1006.05 1006.21 1006.25 1006.17 1005.97 1005.69 1005.33 1004.94 1004.56 1004.20 1003.92 1003.71 1003.60 1003.59 1003.65 1003.79 1003.97 1004.18 1004.40 1004.61 1004.80 1004.99 1005.17 1005.37 1005.58
1001.54 1001.47 1001.42 1001.40 1001.39 1001.40 1001.45 1001.54 1001.68 1001.89 1002.17 1002.52 1002.93 1003.38 1003.85 1004.31 1004.73 1005.09 1005.34 1005.48 1005.49 1005.37 1005.15 1004.83 1004.46 1004.06 1003.69 1003.36 1003.10 1002.94 1002.88 1002.91 1003.03 1003.19 1003.40 1003.61 1003.82 1004.01 1004.18 1004.33 1004.48 1004.63 1004.81
1000.84 1000.76 1000.70 1000.66 1000.64 1000.65 1000.68 1000.76 1000.90 1001.10 1001.37 1001.71 1002.12 1002.57 1003.04 1003.50 1003.92 1004.26 1004.51 1004.63 1004.63 1004.51 1004.28 1003.96 1003.60 1003.23 1002.88 1002.59 1002.38 1002.27 1002.25 1002.32 1002.45 1002.64 1002.84 1003.04 1003.23 1003.38 1003.51 1003.62 1003.73 1003.86 1004.02
1000.27 1000.16 1000.08 1000.02 999.97 999.94 999.95 1000.00 1000.11 1000.28 1000.53 1000.85 1001.24 1001.68 1002.14 1002.59 1003.00 1003.35 1003.59 1003.73 1003.74 1003.63 1003.43 1003.15 1002.83 1002.50 1002.21 1001.97 1001.80 1001.73 1001.73 1001.81 1001.95 1002.11 1002.28 1002.44 1002.58 1002.68 1002.76 1002.83 1002.91 1003.02 1003.18
999.87 999.72 999.60 999.50 999.41 999.35 999.31 999.32 999.39 999.53 999.74 1000.03 1000.38 1000.79 1001.23 1001.67 1002.07 1002.42 1002.68 1002.83 1002.88 1002.82 1002.67 1002.45 1002.20 1001.94 1001.70 1001.51 1001.39 1001.34 1001.35 1001.41 1001.51 1001.62 1001.73 1001.81 1001.87 1001.90 1001.92 1001.94 1002.00 1002.10 1002.28
999.67 999.49 999.33 999.18 999.05 998.94 998.86 998.83 998.85 998.94 999.10 999.34 999.66 1000.03 1000.43 1000.85 1001.24 1001.58 1001.86 1002.05 1002.14 1002.14 1002.06 1001.92 1001.75 1001.57 1001.39 1001.25 1001.16 1001.11 1001.09 1001.11 1001.14 1001.16 1001.17 1001.15 1001.11 1001.06 1001.01 1000.99 1001.02 1001.13 1001.34
999.72 999.50 999.31 999.12 998.96 998.81 998.69 998.61 998.58 998.62 998.74 998.93 999.19 999.51 999.87 1000.25 1000.62 1000.96 1001.25 1001.46 1001.60 1001.67 1001.66 1001.61 1001.51 1001.40 1001.28 1001.18 1001.09 1001.02 1000.96 1000.90 1000.84 1000.75 1000.64 1000.51 1000.37 1000.23 1000.11 1000.05 1000.07 1000.19 1000.44
1000.05 999.82 999.60 999.39 999.20 999.02 998.87 998.75 998.69 998.69 998.75 998.88 999.09 999.35 999.66 999.99 1000.33 1000.65 1000.94 1001.18 1001.35 1001.47 1001.53 1001.54 1001.51 1001.45 1001.37 1001.28 1001.19 1001.08 1000.95 1000.81 1000.64 1000.44 1000.21 999.97 999.72 999.50 999.33 999.24 999.25 999.39 999.68
1000.67 1000.43 1000.20 999.99 999.78 999.59 999.43 999.29 999.20 999.16 999.18 999.27 999.42 999.62 999.87 1000.15 1000.44 1000.73 1001.00 1001.24 1001.43 1001.57 1001.67 1001.72 1001.73 1001.70 1001.64 1001.55 1001.43 1001.27 1001.08 1000.85 1000.58 1000.27 999.94 999.61 999.29 999.01 998.80 998.69 998.70 998.87 999.19
1001.55 1001.32 1001.10 1000.89 1000.69 1000.51 1000.34 1000.20 1000.10 1000.04 1000.03 1000.07 1000.18 1000.33 1000.52 1000.74 1000.98 1001.22 1001.46 1001.67 1001.85 1001.99 1002.10 1002.16 1002.17 1002.15 1002.08 1001.97 1001.81 1001.60 1001.35 1001.04 1000.69 1000.31 999.91 999.52 999.15 998.84 998.62 998.51 998.53 998.72 999.07
1002.63 1002.43 1002.23 1002.04 1001.86 1001.70 1001.55 1001.42 1001.32 1001.25 1001.23 1001.25 1001.31 1001.42 1001.56 1001.72 1001.91 1002.09 1002.28 1002.44 1002.59 1002.70 1002.78 1002.82 1002.82 1002.77 1002.68 1002.54 1002.34 1002.09 1001.78 1001.43 1001.03 1000.61 1000.18 999.76 999.38 999.06 998.85 998.75 998.80 998.99 999.35
Thickness
5726 5724 5722 5719 5717 5715 5712 5710 5708 5707 5706 5705 5703 5702 5701 5701 5700 5699 5699 5698 5697 5695 5695 5694 5692 5692 5690 5690 5688 5687 5686 5685 5683 5683 5683 5685 5686 5687 5688 5688 5688 5688 5687
5721 5719 5717 5713 5711 5709 5707 5705 5704 5703 5703 5701 5699 5697 5697 5696 5696 5695 5694 5694 5692 5691 5690 5689 5687 5687 5685 5684 5682 5681 5680 5679 5678 5677 5677 5678 5679 5680 5681 5681 5682 5682 5681
5714 5711 5709 5707 5705 5703 5702 5701 5700 5699 5698 5696 5695 5693 5692 5691 5692 5691 5690 5689 5688 5686 5685 5684 5682 5681 5679 5678 5677 5675 5674 5674 5673 5672 5671 5671 5672 5673 5673 5674 5675 5675 5676
5708 5705 5703 5701 5700 5698 5697 5696 5695 5694 5692 5691 5690 5689 5687 5687 5686 5686 5685 5683 5682 5681 5680 5679 5677 5676 5675 5673 5672 5670 5669 5667 5666 5665 5665 5665 5665 5665 5665 5665 5666 5667 5668
5702 5700 5698 5696 5694 5693 5692 5690 5689 5688 5687 5686 5684 5684 5682 5682 5681 5680 5679 5678 5676 5675 5674 5673 5672 5671 5670 5669 5668 5665 5664 5661 5660 5658 5658 5658 5658 5657 5658 5658 5658 5659 5661
5696 5695 5694 5691 5689 5687 5686 5685 5683 5682 5681 5680 5679 5678 5677 5677 5677 5675 5674 5672 5670 5669 5667 5667 5666 5665 5665 5663 5662 5661 5659 5657 5655 5653 5652 5651 5651 5651 5651 5651 5651 5651 5653
5691 5690 5688 5686 5684 5682 5681 5678 5677 5676 5675 5674 5673 5672 5671 5672 5671 5670 5669 5667 5665 5663 5662 5661 5661 5660 5658 5658 5656 5655 5654 5653 5651 5649 5648 5647 5647 5647 5645 5644 5643 5644 5646
5685 5684 5683 5680 5678 5676 5674 5673 5671 5670 5669 5668 5668 5667 5666 5666 5665 5664 5663 5661 5659 5658 5656 5656 5655 5654 5653 5652 5651 5649 5648 5647 5646 5645 5644 5644 5643 5641 5639 5638 5637 5637 5638
5677 5677 5676 5674 5671 5670 5668 5667 5666 5665 5664 5664 5663 5662 5661 5661 5660 5659 5657 5654 5653 5652 5651 5650 5650 5648 5647 5646 5644 5642 5642 5641 5640 5639 5638 5637 5636 5635 5634 5631 5630 5631 5632
5669 5669 5668 5667 5666 5665 5663 5662 5661 5660 5660 5659 5657 5657 5656 5655 5654 5653 5651 5649 5647 5646 5644 5644 5643 5642 5641 5639 5638 5636 5635 5635 5633 5632 5631 5631 5630 5629 5627 5626 5625 5624 5624
5662 5661 5661 5661 5660 5659 5658 5657 5656 5654 5653 5652 5652 5651 5650 5650 5649 5647 5646 5644 5642 5641 5639 5638 5637 5635 5634 5633 5632 5631 5630 5628 5626 5625 5624 5624 5623 5622 5621 5620 5619 5618 5617
5653 5653 5653 5653 5653 5653 5651 5650 5649 5647 5646 5645 5644 5644 5644 5643 5642 5641 5640 5639 5638 5636 5634 5632 5631 5629 5628 5627 5626 5625 5623 5621 5620 5619 5618 5617 5616 5615 5615 5614 5613 5612 5612
5645 5644 5644 5644 5644 5644 5643 5642 5640 5639 5638 5637 5637 5637 5637 5636 5635 5634 5633 5633 5631 5630 5628 5627 5625 5623 5621 5620 5619 5618 5616 5615 5614 5613 5611 5610 5609 5608 5608 5607 5607 5607 5606
5636 5635 5635 5635 5635 5635 5634 5634 5633 5631 5631 5630 5629 5629 5629 5627 5627 5626 5626 5625 5623 5622 5621 5619 5617 5615 5614 5613 5611 5610 5610 5609 5607 5606 5605 5604 5602 5602 5602 5601 5600 5600 5600
5627 5627 5626 5626 5626 5625 5625 5624 5625 5624 5623 5623 5622 5622 5621 5620 5620 5619 5618 5618 5617 5615 5613 5611 5609 5608 5606 5605 5604 5603 5602 5601 5600 5599 5598 5597 5596 5596 5595 5594 5593 5592 5592
5618 5618 5617 5617 5617 5617 5616 5615 5614 5615 5615 5614 5614 5615 5614 5614 5613 5611 5610 5609 5608 5606 5605 5604 5602 5601 5600 5598 5597 5596 5595 5594 5593 5593 5592 5591 5590 5590 5589 5587 5586 5586 5586
5611 5609 5609 5609 5609 5609 5609 5608 5607 5607 5606 5605 5605 5606 5606 5605 5604 5603 5602 5600 5599 5598 5598 5597 5596 5595 5594 5592 5591 5590 5589 5588 5587 5586 5586 5585 5584 5583 5582 5581 5580 5579 5579
5604 5602 5602 5601 5601 5601 5601 5601 5600 5600 5598 5597 5596 5596 5597 5596 5596 5594 5593 5591 5590 5590 5590 5590 5589 5588 5587 5586 5585 5584 5583 5581 5580 5580 5579 5579 5578 5577 5576 5575 5574 5573 5572
5596 5595 5594 5594 5593 5593 5593 5592 5592 5591 5589 5588 5588 5587 5587 5587 5586 5585 5584 5584 5584 5583 5582 5582 5582 5582 5581 5580 5578 5577 5576 5575 5574 5574 5573 5572 5572 5571 5570 5569 5568 5565 5565
5588 5587 5587 5587 5586 5586 5585 5584 5584 5582 5582 5581 5580 5580 5579 5578 5578 5577 5576 5576 5577 5576 5575 5574 5575 5574 5574 5573 5572 5570 5570 5569 5568 5568 5567 5566 5565 5564 5564 5563 5562 5561 5560
5581 5580 5580 5580 5579 5579 5578 5578 5577 5576 5575 5574 5573 5572 5570 5571 5570 5570 5569 5569 5569 5569 5568 5568 5568 5568 5567 5566 5565 5564 5564 5563 5562 5561 5561 5560 5559 5558 5558 5557 5556 5555 5554
5574 5574 5573 5573 5573 5572 5571 5571 5570 5569 5569 5568 5566 5565 5562 5562 5562 5562 5561 5561 5561 5562 5562 5562 5562 5562 5561 5560 5559 5558 5557 5557 5556 5554 5553 5553 5553 5552 5552 5551 5550 5549 5548
5568 5567 5567 5566 5566 5565 5565 5564 5563 5562 5561 5561 5559 5558 5556 5555 5555 5554 5554 5554 5554 5555 5555 5556 5556 5556 5555 5554 5553 5552 5551 5550 5549 5548 5547 5547 5546 5546 5545 5544 5544 5543 5542
5562 5561 5561 5560 5560 5559 5558 5557 5556 5555 5554 5554 5552 5551 5550 5549 5548 5548 5548 5547 5548 5548 5549 5550 5550 5550 5549 5548 5547 5546 5545 5544 5543 5542 5542 5541 5540 5539 5538 5537 5537 5536 5536
5555 5555 5554 5554 5553 5552 5551 5550 5549 5548 5547 5546 5545 5544 5543 5542 5542 5541 5541 5541 5542 5542 5543 5544 5544 5543 5542 5541 5540 5540 5539 5538 5537 5535 5534 5533 5533 5532 5531 5530 5529 5528 5527
5549 5548 5547 5547 5546 5545 5544 5543 5542 5541 5540 5540 5538 5537 5537 5536 5536 5535 5535 5535 5536 5536 5537 5537 5537 5537 5536 5535 5534 5533 5532 5531 5530 5529 5527 5526 5525 5524 5523 5522 5521 5520 5519